Preview of NWS' New Version of Forecast
This preview is not operational and should not be used for support decisions.

Regional Weather Roundup (RWR)

Issued by National Weather Service (NWS)

                            
000
ASUS46 KSEW 230710
RWRWA 

WASHINGTON REGIONAL WEATHER ROUNDUP
NATIONAL WEATHER SERVICE SEATTLE WA
1100 PM PST FRI FEB 22 2019

NOTE:"FAIR" INDICATES FEW OR NO CLOUDS BELOW 12,000 FEET WITH NO 
SIGNIFICANT WEATHER AND/OR OBSTRUCTIONS TO VISIBILITY.

WAZ507-509-555>559-230800-
SEATTLE, TACOMA, EVERETT, AND VICINITY
  
CITY           SKY/WX    TMP DP  RH WIND       PRES   REMARKS
EVERETT        MOCLDY    35  34  96 SE9       30.00R                  
BOEING FIELD   CLOUDY    40  34  79 S8        30.02R                  
RENTON         CLOUDY    40  35  83 CALM      30.03R                  
SEATAC AIRPORT CLOUDY    39  34  82 S8        30.01R                  
JBLM-MCCHORD   MOCLDY    34  34 100 S6        30.02S                  
PUYALLUP       CLOUDY    37  34  87 S3        30.02R                  
BREMERTON      CLOUDY    35  34  96 SW5       30.00S                  
JBLM-FT LEWIS  PTCLDY    34  34 100 S8        30.01R                  
TACOMA NARROWS CLOUDY    37  34  89 S8        30.02R                  
$$
 
WAZ001-503-506-510-514-515-230800-
NORTH INTERIOR
  
CITY           SKY/WX    TMP DP  RH WIND       PRES   REMARKS
BELLINGHAM     CLOUDY    34  30  85 N5        29.97R                  
FRIDAY HARBOR  PTCLDY    33  30  88 CALM      29.98R                  
EASTSOUND      CLOUDY    37  36  93 SE5       29.96S                  
PORT ANGELES   CLEAR     38  30  73 W12       29.98S                  
EDIZ HOOK      FAIR      39  31  71 W5        29.99R                  
PORT TOWNSEND  MOCLDY    28  28 100 CALM      30.00R                  
NAS WHIDBEY    MOCLDY    46  35  65 W23       30.02R                  
ARLINGTON      CLOUDY    36  35  96 S7        30.01R                  
BURLINGTON     CLOUDY    36  36 100 E7        29.99S                  
$$
 
WAZ020-022-039-040-504-511-512-230800-
SOUTHWEST INTERIOR
  
CITY           SKY/WX    TMP DP  RH WIND       PRES   REMARKS
SHELTON        CLEAR     36  32  85 SW10      29.99R                  
OLYMPIA        CLEAR     32  31  96 S8        30.04R                  
CHEHALIS       CLOUDY    34  34 100 S6        30.06R FOG              
KELSO          CLOUDY    35  34  96 SE5       30.10R                  
VANCOUVER      CLOUDY    38  37  97 CALM      30.08S FOG              
SCAPPOOSE, OR  CLOUDY    38  35  89 CALM      30.09R FOG              
PORTLAND, OR   CLOUDY    40  38  93 W3        30.09R                  
$$
 
WAZ021-516-517-230800-
WASHINGTON COAST
  
CITY           SKY/WX    TMP DP  RH WIND       PRES   REMARKS
FORKS          MOCLDY    34  33  96 E5        30.01R                  
HOQUIAM        PTCLDY    39  36  89 S7        30.04S                  
ASTORIA, OR    CLOUDY    35  35 100 SE5       30.07R                  
$$
 
WAZ019-023-024-040-567>569-230800-
CASCADE MOUNTAINS AND COLUMBIA GORGE
  
CITY           SKY/WX    TMP DP  RH WIND       PRES   REMARKS
STAMPEDE PASS  SNOW      27  23  85 VRB3      29.85R VSB 1/2          
TROUTDALE, OR  CLOUDY    40  37  89 CALM      30.09R                  
HOOD RIVER, OR CLOUDY    36  32  87 NW10      30.03R                  
THE DALLES, OR CLOUDY    37  31  78 NW8       30.03R                  
$$

WAZ026-027-041>044-520-521-230800-
EAST SLOPES
  
CITY           SKY/WX    TMP DP  RH WIND       PRES   REMARKS
OMAK           CLOUDY    25  21  85 CALM      29.94R                  
WENATCHEE      MOCLDY    16  14  92 NW9       29.95R FOG              
ELLENSBURG     CLEAR     31  12  45 NW3       29.93R HAZE             
YAKIMA         MOCLDY    18  13  80 SW3       29.97R                  
SUNNYSIDE ARPT CLOUDY    25  22  89 CALM      29.98R                  
YAKIMA TC      FAIR      19  15  85 E5        29.94R                  
$$

WAZ028-034-035-230800-
COLUMBIA BASIN
  
CITY           SKY/WX    TMP DP  RH WIND       PRES   REMARKS
EPHRATA        CLEAR     22  16  78 N12       29.93R WCI  10          
MOSES LAKE     CLEAR     18  13  80 E5        29.95R                  
PASCO          CLOUDY    37  31  78 W12       29.98R                  
RICHLAND ARPT  CLOUDY    37  31  79 SW3       29.98R                  
HERMISTON, OR  CLOUDY    37  31  78 SW6       29.99S                  
$$

WAZ036>038-230800-
NORTHEAST WASHINGTON
  
CITY           SKY/WX    TMP DP  RH WIND       PRES   REMARKS
SPOKANE GEIGER CLOUDY    28  25  88 SW10      29.86S WCI  19          
SPOKANE FELTS  CLOUDY    30  27  88 CALM      29.89S                  
FAIRCHILD AFB  CLOUDY    25  25 100 SW10      29.85R WCI  15          
COEURDALENE,ID FLURRIES  27  25  92 S9        29.87F                  
DEER PARK      CLOUDY    25  23  92 CALM      29.88R                  
$$

WAZ029>033-230800-
SOUTHEAST WASHINGTON
  
CITY           SKY/WX    TMP DP  RH WIND       PRES   REMARKS
PULLMAN        CLOUDY    29  26  89 S6        29.91R                  
LEWISTON, ID   CLOUDY    28  25  88 N6        29.94F                  
WALLA WALLA    MIX PCPN  37  30  75 S16       29.97S                  
PENDLETON, OR  CLOUDY    34  28  79 S9        29.96F                  
$$